Погода в Эворе

Португалия     38°34′23″N   7°54′31″W
темп.,
°C
ветер,
м/с
пор.,
м/с
влажн.,
%
обл.,
%
осадки,
мм/ч
давл.,
гПа
погр.,
м
23 апреля, пт
пт2301:00+12ю1179100 0.0 101413
04:00+13юв2275100 0.0 101239
07:00+12юв3577100 0.0 1012103
10:00+17ююв696994 0.1 1014766
13:00+22ю810497 0.2 10121826
16:00+22ю8104957 0.0 10111876
19:00+19ю795981 0.0 10111060
22:00+14ю4108894 0.0 1013291
24 апреля, сб
сб2401:00+13юв41197100 0.0 1012417
04:00+13ююв51493100 0.0 1011568
07:00+11юв389454 0.0 1011323
10:00+16ююв5969100 0.0 1011881
13:00+20ююв8958100 0.0 10101499
16:00+20ю71058100 0.1 10081584
19:00+18ююв7107254 0.5 10091034
22:00+14ююв498840 0.1 1010324
25 апреля, вс
вс2501:00+14юв41094100 0.2 1009456
04:00+13ююв51195100 0.4 1008494
07:00+14ююв4885100 0.9 1007441
10:00+16юв5779100 0.2 1008655
13:00+20ю575519 1.6 10061641
16:00+18ю136887 1.7 1005343
19:00+17сз237899 3.2 100663
22:00+13зсз1186100 0.9 100810
26 апреля, пн
пн2601:00+11юв2289100 0.9 100819
04:00+11вюв349763 0.0 100770
07:00+12вюв4997100 0.1 1006338
10:00+15юв498876 0.8 1007571
13:00+21ю455596 1.6 10051727
16:00+19ююз5666100 2.1 10041206
19:00+17юз468096 3.8 1004402
22:00+14ююз379486 2.9 1006201
27 апреля, вт
вт2701:00+12ююз239816 3.3 100667
04:00+11ю229822 0.0 100631
07:00+11ююв119827 0.0 100716
10:00+16ю218368 0.0 1007571
13:00+18юз227073 0.5 10071007
16:00+19з44728 2.5 1006868
19:00+18з478069 4.6 1007664
22:00+12з34924 0.0 100867